Regional Weather Roundup
Issued by NWS

Home | Current Version | Previous Version | Graphics & Text | Print | Product List | Glossary On
Versions: 1 2 3 4 5 6 7 8 9 10 11 12 13 14 15 16 17 18 19 20 21 22 23 24 25 26 27 28 29 30 31 32 33 34 35 36 37 38 39 40 41 42 43 44 45 46 47 48 49 50
000
ASUS43 KFSD 261702
RWRSD

WEATHER ROUNDUP FOR SOUTH DAKOTA
NATIONAL WEATHER SERVICE SIOUX FALLS SD
1100 AM CST FRI DEC 26 2014

NOTE: "FAIR" INDICATES FEW OR NO CLOUDS BELOW 12,000 FEET WITH NO
SIGNIFICANT WEATHER AND/OR OBSTRUCTIONS TO VISIBILITY.


SDZ001>005-009-010-012>017-261800-
NORTHWEST AND NORTH CENTRAL SOUTH DAKOTA

CITY           SKY/WX    TMP DP  RH WIND       PRES   REMARKS
BUFFALO          N/A     20  14  77 N6        30.05R WCI  12
FAITH            N/A     18  11  74 N12       30.13S WCI   5
MOBRIDGE       CLOUDY    20  14  77 N13       30.15R WCI   7
$$

SDZ012>016-024>037-041>051-057-063-072>074-261800-
SOUTHWEST AND SOUTH CENTRAL SOUTH DAKOTA

CITY           SKY/WX    TMP DP  RH WIND       PRES   REMARKS
RAPID CTY ARPT CLOUDY    20  15  81 N10       30.11R WCI   9
PIERRE         CLOUDY    23  18  81 NE16      30.15R WCI  10
CUSTER         CLOUDY    15  12  88 VRB3      29.94R
ELLSWORTH AFB  FLURRIES  19  15  84 N10       30.09  WCI   8
PHILIP         FLURRIES  22  17  81 N9        30.16R WCI  12
PINE RIDGE     CLOUDY    20  14  77 N12       30.09R WCI   8
WINNER         CLOUDY    24  19  81 N17       30.13R WCI  11
$$

SDZ004>011-016>023-039-040-261800-
NORTHEAST SOUTH DAKOTA

CITY           SKY/WX    TMP DP  RH WIND       PRES   REMARKS
ABERDEEN       CLOUDY    25  19  78 N17       30.16R WCI  12
WATERTOWN      CLOUDY    22  18  85 N17       30.08R WCI   8
SISSETON         N/A     24  20  84 N17       30.13R WCI  11
$$

SDZ017-020-022-023-036>040-048>070-261800-
SOUTHEAST SOUTH DAKOTA

CITY           SKY/WX    TMP DP  RH WIND       PRES   REMARKS
SIOUX FALLS    CLOUDY    28  23  81 N15       30.06F WCI  16
HURON          PTSUNNY   23  17  78 N16       30.14R WCI  10
MITCHELL       CLOUDY    26  22  84 N16       30.14R WCI  14
YANKTON        CLOUDY    28  23  80 N15       30.09S WCI  17
$$

ABBREVIATIONS USED IN REMARKS
   TC - TEMPERATURE IN CELSIUS
  WCI - WIND CHILL INDEX
   HX - HEAT INDEX
  VSB - VISIBILITY




USA.gov is the U.S. government's official web portal to all federal, state and local government web resources and services.